Location: Newark
(18.8808°N, 99.0693°W)
Time: 17:10:27
(UTC+00:00)

Envisat - Visible Passes

Search period start: 19 July 2019 00:00
Search period end: 29 July 2019 00:00
Orbit: 764 x 766 km, 98.1° (Epoch: 19 July)

Date Brightness Start Highest point End Pass type
(mag) Time Alt. Az. Time Alt. Az. Time Alt. Az.
19 Jul 4.0 01:33:50 10° S 01:38:43 49° W 01:43:37 10° NNW visible
21 Jul 5.3 02:00:11 10° SSW 02:04:15 24° W 02:08:21 10° NW visible
23 Jul 5.9 02:28:02 10° WSW 02:29:50 12° W 02:31:38 10° WNW visible
24 Jul 4.8 01:48:29 10° SSW 01:53:00 33° W 01:57:31 10° NW visible
26 Jul 5.7 02:15:28 10° SW 02:18:33 16° W 02:21:39 10° WNW visible
27 Jul 4.3 01:36:56 10° S 01:41:45 44° W 01:46:34 10° NNW visible
